Total_Precipitation_Accumulation
0.06 0.05 0.06 0.07 0.06 0.05 0.02 0.01 0.00 0.00 0.00 0.00 0.00 0.00 0.00 0.00 0.00 0.03 0.05 0.04 0.05 0.08 0.13 0.28 0.40 0.44 0.47 0.51 0.49 0.45 0.39 0.36 0.40 0.48 0.55 0.55 0.53 0.51 0.55 0.56 0.57 0.61 0.64 0.65 0.61 0.58 0.57 0.49 0.44
0.06 0.07 0.10 0.14 0.08 0.03 0.01 0.01 0.00 0.00 0.00 0.00 0.00 0.00 0.00 0.00 0.01 0.03 0.06 0.05 0.04 0.06 0.11 0.19 0.33 0.43 0.48 0.50 0.49 0.44 0.41 0.40 0.42 0.47 0.55 0.58 0.54 0.49 0.52 0.55 0.57 0.62 0.64 0.66 0.63 0.58 0.58 0.49 0.43
0.10 0.12 0.14 0.13 0.07 0.02 0.01 0.00 0.00 0.00 0.00 0.00 0.00 0.00 0.00 0.01 0.02 0.03 0.04 0.04 0.04 0.07 0.11 0.19 0.34 0.44 0.52 0.54 0.53 0.50 0.47 0.47 0.49 0.51 0.56 0.60 0.61 0.56 0.52 0.48 0.52 0.61 0.62 0.63 0.64 0.60 0.59 0.53 0.46
0.18 0.22 0.20 0.13 0.04 0.01 0.01 0.00 0.00 0.01 0.01 0.01 0.01 0.00 0.00 0.00 0.01 0.03 0.04 0.04 0.05 0.08 0.12 0.21 0.36 0.48 0.53 0.56 0.59 0.54 0.53 0.54 0.54 0.55 0.60 0.64 0.65 0.61 0.58 0.53 0.49 0.50 0.53 0.59 0.62 0.63 0.64 0.59 0.50
0.24 0.27 0.23 0.12 0.03 0.01 0.00 0.00 0.00 0.00 0.01 0.01 0.01 0.00 0.01 0.01 0.02 0.04 0.05 0.06 0.06 0.09 0.13 0.22 0.38 0.51 0.56 0.59 0.64 0.61 0.61 0.62 0.60 0.60 0.63 0.67 0.67 0.67 0.63 0.58 0.51 0.44 0.44 0.47 0.55 0.56 0.58 0.59 0.53
0.33 0.29 0.18 0.09 0.04 0.01 0.00 0.00 0.00 0.00 0.01 0.01 0.01 0.01 0.02 0.03 0.04 0.06 0.07 0.08 0.08 0.10 0.15 0.25 0.44 0.54 0.62 0.67 0.71 0.68 0.68 0.73 0.73 0.72 0.71 0.70 0.69 0.67 0.64 0.60 0.54 0.48 0.47 0.48 0.50 0.52 0.56 0.59 0.57
0.30 0.25 0.13 0.06 0.04 0.02 0.00 0.00 0.01 0.01 0.01 0.01 0.02 0.01 0.03 0.07 0.07 0.07 0.09 0.10 0.12 0.13 0.17 0.27 0.41 0.54 0.67 0.75 0.78 0.77 0.75 0.78 0.78 0.77 0.76 0.73 0.74 0.75 0.75 0.69 0.60 0.55 0.54 0.53 0.50 0.47 0.47 0.49 0.54
0.29 0.27 0.14 0.06 0.04 0.02 0.01 0.01 0.01 0.01 0.02 0.02 0.02 0.02 0.03 0.08 0.09 0.10 0.12 0.14 0.17 0.20 0.22 0.31 0.43 0.52 0.61 0.70 0.78 0.78 0.76 0.81 0.82 0.83 0.81 0.79 0.79 0.80 0.82 0.74 0.64 0.58 0.57 0.52 0.48 0.46 0.42 0.39 0.39
0.41 0.37 0.15 0.05 0.04 0.03 0.02 0.03 0.02 0.02 0.04 0.04 0.04 0.02 0.03 0.08 0.12 0.14 0.18 0.21 0.24 0.27 0.29 0.36 0.50 0.58 0.62 0.66 0.67 0.79 0.84 0.87 0.87 0.87 0.84 0.82 0.78 0.72 0.68 0.63 0.63 0.63 0.62 0.56 0.52 0.50 0.45 0.38 0.32
0.51 0.36 0.13 0.04 0.03 0.04 0.05 0.06 0.06 0.05 0.06 0.05 0.06 0.05 0.07 0.12 0.16 0.16 0.16 0.19 0.23 0.26 0.30 0.38 0.51 0.58 0.65 0.66 0.72 0.84 0.85 0.86 0.85 0.81 0.83 0.80 0.74 0.69 0.63 0.62 0.61 0.62 0.65 0.66 0.63 0.57 0.49 0.39 0.29
0.41 0.27 0.11 0.06 0.05 0.06 0.08 0.07 0.07 0.07 0.07 0.06 0.06 0.08 0.11 0.17 0.21 0.20 0.16 0.16 0.20 0.27 0.33 0.39 0.51 0.61 0.68 0.70 0.73 0.80 0.81 0.84 0.86 0.87 0.86 0.87 0.86 0.83 0.80 0.76 0.76 0.68 0.62 0.63 0.65 0.64 0.51 0.43 0.37
0.29 0.18 0.12 0.10 0.09 0.09 0.10 0.09 0.08 0.07 0.06 0.07 0.07 0.08 0.13 0.20 0.23 0.21 0.19 0.19 0.23 0.34 0.40 0.44 0.55 0.65 0.69 0.75 0.78 0.77 0.78 0.78 0.80 0.86 0.90 0.90 0.88 0.84 0.83 0.80 0.74 0.70 0.68 0.65 0.62 0.59 0.50 0.44 0.37
0.23 0.16 0.12 0.11 0.13 0.12 0.12 0.10 0.09 0.06 0.04 0.07 0.09 0.10 0.13 0.22 0.28 0.28 0.29 0.28 0.30 0.37 0.43 0.49 0.60 0.65 0.69 0.76 0.83 0.84 0.80 0.75 0.74 0.79 0.84 0.86 0.84 0.80 0.75 0.72 0.69 0.66 0.66 0.63 0.57 0.51 0.45 0.38 0.35
0.21 0.17 0.14 0.12 0.14 0.13 0.13 0.10 0.08 0.05 0.04 0.07 0.09 0.11 0.13 0.22 0.31 0.30 0.34 0.36 0.33 0.35 0.42 0.51 0.63 0.71 0.74 0.76 0.78 0.81 0.83 0.80 0.77 0.76 0.74 0.76 0.79 0.78 0.76 0.73 0.72 0.67 0.64 0.64 0.61 0.56 0.50 0.42 0.36
0.24 0.26 0.22 0.15 0.12 0.15 0.17 0.14 0.06 0.03 0.04 0.08 0.10 0.11 0.14 0.21 0.30 0.29 0.30 0.37 0.38 0.40 0.48 0.61 0.69 0.79 0.83 0.82 0.83 0.82 0.83 0.85 0.82 0.78 0.77 0.75 0.74 0.75 0.79 0.79 0.74 0.67 0.62 0.60 0.61 0.63 0.63 0.56 0.47
0.38 0.43 0.32 0.17 0.12 0.13 0.25 0.20 0.04 0.03 0.05 0.08 0.11 0.12 0.13 0.18 0.25 0.30 0.31 0.36 0.45 0.52 0.56 0.65 0.75 0.81 0.86 0.90 0.92 0.88 0.85 0.87 0.88 0.83 0.84 0.81 0.77 0.79 0.83 0.84 0.79 0.73 0.68 0.65 0.61 0.60 0.61 0.60 0.56
0.57 0.49 0.29 0.17 0.13 0.15 0.24 0.17 0.05 0.03 0.05 0.07 0.09 0.12 0.13 0.15 0.22 0.30 0.34 0.36 0.45 0.51 0.54 0.66 0.77 0.75 0.79 0.91 0.97 0.96 0.93 0.93 0.92 0.90 0.86 0.83 0.79 0.77 0.82 0.86 0.85 0.82 0.80 0.75 0.70 0.64 0.58 0.55 0.53
0.45 0.33 0.23 0.18 0.17 0.19 0.19 0.11 0.04 0.05 0.07 0.07 0.08 0.10 0.13 0.13 0.15 0.22 0.32 0.39 0.46 0.55 0.62 0.67 0.79 0.79 0.80 0.90 1.05 1.04 1.01 0.99 0.97 0.92 0.84 0.84 0.83 0.79 0.78 0.81 0.84 0.87 0.85 0.81 0.75 0.70 0.62 0.55 0.52
0.26 0.27 0.26 0.18 0.16 0.24 0.20 0.11 0.05 0.05 0.08 0.08 0.08 0.09 0.12 0.12 0.13 0.18 0.29 0.41 0.48 0.52 0.58 0.64 0.76 0.78 0.84 0.89 0.95 1.00 0.93 0.93 0.94 0.90 0.87 0.82 0.85 0.87 0.84 0.81 0.80 0.83 0.82 0.76 0.71 0.70 0.69 0.66 0.62
0.34 0.35 0.28 0.20 0.18 0.27 0.24 0.13 0.05 0.04 0.06 0.07 0.07 0.09 0.11 0.12 0.14 0.18 0.26 0.37 0.43 0.44 0.46 0.51 0.66 0.76 0.80 0.83 0.85 0.87 0.89 0.89 0.91 0.87 0.89 0.89 0.87 0.91 0.89 0.82 0.83 0.82 0.79 0.76 0.69 0.67 0.68 0.67 0.67
0.40 0.32 0.26 0.24 0.25 0.29 0.29 0.20 0.07 0.04 0.05 0.08 0.10 0.11 0.11 0.11 0.13 0.15 0.19 0.31 0.36 0.40 0.40 0.45 0.56 0.70 0.79 0.84 0.98 1.04 1.08 1.11 1.07 0.98 0.90 0.87 0.89 0.90 0.93 0.87 0.82 0.84 0.84 0.80 0.72 0.66 0.65 0.65 0.60
0.44 0.23 0.22 0.27 0.43 0.46 0.35 0.36 0.12 0.06 0.07 0.08 0.09 0.09 0.10 0.10 0.13 0.15 0.17 0.25 0.31 0.36 0.38 0.43 0.57 0.70 0.77 0.84 0.93 0.99 1.01 1.04 1.02 0.94 0.87 0.81 0.83 0.88 0.86 0.89 0.88 0.83 0.81 0.77 0.73 0.67 0.63 0.65 0.65
0.39 0.23 0.25 0.34 0.49 0.58 0.38 0.41 0.16 0.08 0.10 0.10 0.10 0.10 0.10 0.10 0.11 0.13 0.16 0.22 0.30 0.39 0.40 0.43 0.55 0.71 0.81 0.88 0.89 0.93 0.92 0.88 0.92 1.00 0.97 0.91 0.88 0.88 0.88 0.85 0.88 0.87 0.81 0.75 0.75 0.75 0.72 0.71 0.70
0.43 0.45 0.51 0.56 0.88 1.08 0.38 0.33 0.19 0.12 0.14 0.13 0.12 0.11 0.12 0.13 0.12 0.12 0.15 0.19 0.27 0.41 0.45 0.50 0.55 0.65 0.81 0.93 0.93 0.91 0.91 0.91 0.93 1.00 1.04 1.03 0.97 0.91 0.85 0.84 0.83 0.84 0.81 0.73 0.70 0.73 0.77 0.77 0.73
0.77 1.13 1.74 1.83 1.77 0.98 0.19 0.21 0.22 0.12 0.10 0.12 0.12 0.11 0.11 0.13 0.15 0.14 0.16 0.19 0.24 0.35 0.45 0.50 0.56 0.59 0.68 0.88 0.95 0.90 0.90 0.89 0.87 0.91 0.96 0.98 1.00 0.97 0.89 0.83 0.81 0.79 0.78 0.77 0.74 0.74 0.74 0.74 0.78
0.89 1.11 1.40 1.28 0.81 0.31 0.12 0.17 0.18 0.09 0.07 0.08 0.10 0.11 0.09 0.10 0.13 0.15 0.15 0.18 0.24 0.29 0.41 0.51 0.57 0.61 0.65 0.75 0.88 0.91 0.95 0.92 0.85 0.83 0.88 0.91 0.90 0.91 0.91 0.91 0.85 0.77 0.74 0.77 0.80 0.79 0.76 0.76 0.79
0.74 0.88 0.75 0.88 0.56 0.33 0.22 0.15 0.13 0.06 0.05 0.04 0.06 0.09 0.11 0.12 0.14 0.17 0.17 0.19 0.21 0.26 0.36 0.47 0.56 0.67 0.68 0.68 0.82 0.91 0.97 0.97 0.87 0.80 0.82 0.86 0.88 0.90 0.97 0.97 0.96 0.90 0.83 0.79 0.79 0.81 0.80 0.83 0.81
0.58 0.69 0.91 1.30 1.05 0.51 0.24 0.14 0.16 0.11 0.07 0.05 0.04 0.05 0.08 0.11 0.13 0.16 0.20 0.20 0.19 0.23 0.32 0.41 0.48 0.61 0.75 0.71 0.75 0.90 0.95 0.98 0.95 0.88 0.82 0.80 0.80 0.87 0.99 1.03 0.99 1.00 0.97 0.91 0.86 0.82 0.80 0.85 0.87
0.61 0.83 1.09 1.19 0.96 0.64 0.35 0.24 0.21 0.12 0.08 0.08 0.06 0.06 0.07 0.09 0.11 0.14 0.21 0.23 0.21 0.21 0.28 0.40 0.45 0.54 0.72 0.80 0.76 0.80 0.90 0.94 0.98 0.97 0.88 0.81 0.79 0.81 0.89 1.01 1.03 1.03 1.05 1.02 0.99 0.94 0.91 0.90 0.90
0.53 0.67 0.83 1.11 0.91 0.54 0.41 0.26 0.16 0.11 0.08 0.08 0.08 0.06 0.06 0.08 0.11 0.14 0.23 0.25 0.25 0.25 0.28 0.37 0.40 0.45 0.58 0.77 0.83 0.79 0.82 0.93 0.95 0.88 0.85 0.86 0.83 0.82 0.85 0.95 1.08 1.11 1.10 1.07 1.06 1.04 1.07 1.12 1.08